7 * 24
多渠道服务支持
STARLINK-32347 是 SpaceX Starlink 卫星互联网项目中的一颗低轨卫星,属于第三代星链卫星(v1.5 或 v2 架构)。它运行在约 550 公里的近地轨道,旨在为全球用户提供高速、低延迟的宽带互联网服务。该卫星配备先进推进系统和激光通信链路,支持与其他星链卫星的高速数据传输,提高网络效率和覆盖范围。STARLINK-32347 的发射和运行有助于扩展 Starlink 的全球网络,特别是在偏远和网络基础设施薄弱的地区。
美国
(US)
| 数据来源 | 国际轨道数据 |
| 星历时间: | 2025-12-19T18:15:25+0800 1天前 查看轨道信息 |
| 半长轴: | 6853.456km |
| 偏心率: | 0.0001435 |
| 轨道倾角: | 53.163° |
| 近地点辐角 | 51.681° |
| 升交点赤经 | 78.277° |
| 平近点角 | 308.432° |
| 近地点: | 474.335km |
| 远地点: | 476.303km |
| 周期: | 94.107分钟 |
| 每日圈数: | 15.301655 |